Regional Weather Roundup
Issued by NWS

Home | Current Version | Previous Version | Text Only | Print | Product List | Glossary Off
Versions: 1 2 3 4 5 6 7 8 9 10 11 12 13 14 15 16 17 18 19 20 21 22 23 24 25 26 27 28 29 30 31 32 33 34 35 36 37 38 39 40 41 42 43 44 45 46 47 48 49 50

000
ASUS45 KPSR 282010
RWRAZ

ARIZONA REGIONAL HOURLY WEATHER ROUNDUP
NATIONAL WEATHER SERVICE PHOENIX AZ
100 PM MST SAT MAR 28 2015

NOTE: FAIR INDICATES FEW OR NO CLOUDS BELOW 12,000 FEET WITH NO
SIGNIFICANT WEATHER AND/OR OBSTRUCTIONS TO VISIBILITY.

AZZ001>003-036-282100-
NORTHWEST ARIZONA

CITY           SKY/WX    TMP DP  RH WIND       PRES   REMARKS
BULLHEAD CITY  SUNNY     90  28  11 SW7       30.01F
KINGMAN        SUNNY     82  22  11 SW7       30.14F
$$

AZZ004>008-015-016-018-282100-
NORTH CENTRAL ARIZONA

CITY           SKY/WX    TMP DP  RH WIND       PRES   REMARKS
GRAND CANYON   SUNNY     68  17  14 W13G20    30.30F
WILLIAMS       SUNNY     68  12  11 SW8G20    30.38F
PRESCOTT       SUNNY     77  16  10 W15G21    30.23F
FLAGSTAFF      SUNNY     69   8   9 SW15G25   30.31F
PAYSON         SUNNY     73  19  13 SW9       30.26F
PAGE           SUNNY     77  22  13 NE7       30.14F
$$

AZZ009>014-017-282100-
NORTHEAST ARIZONA

CITY           SKY/WX    TMP DP  RH WIND       PRES   REMARKS
WINSLOW        SUNNY     80   8   6 VRB6      30.17F
SAINT JOHNS    SUNNY     78   9   7 W12G22    30.21F
WINDOW ROCK    SUNNY     73   4   7 SW12G24   30.26F
SHOW LOW       SUNNY     72   5   7 SW16      30.30F
$$

AZZ023-282100-
GREATER PHOENIX AREA

CITY           SKY/WX    TMP DP  RH WIND       PRES   REMARKS
PHOENIX        MOSUNNY   91  24   9 SW6       30.03F
BUCKEYE        SUNNY     86  37  17 SE7       30.04F
GLENDALE       SUNNY     90  28  11 NE5       30.05F
LUKE AFB       SUNNY     88  30  12 CALM      30.02F
DEER VALLEY    SUNNY     86  23  10 VRB3      30.05F
SCOTTSDALE     SUNNY     87  20   8 CALM      30.06F
MESA-FALCON    SUNNY     88  19   8 SE6         N/A
MESA-GATEWAY   SUNNY     88  28  11 CALM      30.07F
CHANDLER       SUNNY     88  27  11 VRB5      30.05F
$$

AZZ027-028-282100-
SOUTHWEST MARICOPA COUNTY AND PINAL COUNTY

CITY           SKY/WX    TMP DP  RH WIND       PRES   REMARKS
CASA GRANDE    SUNNY     90  28  11 CALM      30.04F
GILA BEND      FAIR      91  23   8 NE5       30.00F
$$

AZZ503-504-507>509-282100-
SOUTHEAST ARIZONA

CITY           SKY/WX    TMP DP  RH WIND       PRES   REMARKS
TUCSON         SUNNY     89  16   7 NW8       30.13F
DAVIS-MONTHAN  SUNNY     87  12   6 NW13      30.11F
RYAN FIELD       N/A     90  25   9 W5        30.11F
NOGALES        SUNNY     86  15   7 VRB3      30.17F
SIERRA VISTA   SUNNY     82  11   7 VRB5G20   30.21F
DOUGLAS        SUNNY     82  16   8 CALM      30.18F
SAFFORD        SUNNY     86  19   8 NW9       30.11F
$$

AZZ020-021-025-026-031-282100-
SOUTHWEST ARIZONA

CITY           SKY/WX    TMP DP  RH WIND       PRES   REMARKS
YUMA           SUNNY     94  37  13 W6        29.98F
$$

CAZ031-033-041-043-047-048-061-282100-
SOUTHERN CALIFORNIA

CITY           SKY/WX    TMP DP  RH WIND       PRES   REMARKS
DOWNTOWN L.A.  SUNNY     78  59  51 W5        30.05F
L.A. AIRPORT   MOSUNNY   68  59  73 W10       30.07F
SAN DIEGO      MOSUNNY   69  57  65 NW12      30.08F
BURBANK        SUNNY     82  49  31 S9        30.06F
ONTARIO        SUNNY     87  34  15 W8        30.05F
RIVERSIDE      SUNNY     88  29  12 W8        30.05F
PALM SPRINGS   SUNNY     95  22   7 VRB3      29.99F
EL CENTRO NAS  SUNNY     93  33  12 E5        29.96F
IMPERIAL       SUNNY     93  35  13 E7        29.96F
BLYTHE         SUNNY     90  35  14 CALM      29.99F
NEEDLES        SUNNY     92  22   8 SE5       30.00F
$$

NVZ020-UTZ003-282100-
SOUTHERN NEVADA-UTAH

CITY           SKY/WX    TMP DP  RH WIND       PRES   REMARKS
LAS VEGAS      SUNNY     85  27  12 CALM      30.02F
SALT LAKE CITY PTSUNNY   73  28  18 NW8       30.11F
$$

NMZ009-TXZ055-282100-
NEW MEXICO-WEST TEXAS

CITY           SKY/WX    TMP DP  RH WIND       PRES   REMARKS
ALBUQUERQUE    SUNNY     75  21  13 NW5       30.18F
EL PASO        SUNNY     84  15   7 NW8       30.13F
$$


........................KEY........................
SKY/WX - SKY CONDITION/WEATHER
TMP    - TEMPERATURE IN FAHRENHEIT
DP     - DEW POINT IN FAHRENHEIT
RH     - RELATIVE HUMIDITY IN PERCENT
WIND   - DIRECTION AND SPEED IN MILES PER HOUR (MPH)
VRB    - VARIABLE WIND DIRECTION
PRES   - MEAN SEA LEVEL PRESSURE IN INCHES OF MERCURY
         F - FALLING PRESSURE   R - RISING PRESSURE
         S - STEADY PRESSURE
VSB    - VISIBILITY IN MILES
HX     - HEAT INDEX IN FAHRENHEIT
WCI    - WIND CHILL INDEX IN FAHRENHEIT
TC     - TEMPERATURE IN CELSIUS WHICH IS ALSO KNOWN AS
         TEMPERATURE IN CENTIGRADE
AFB    - AIR FORCE BASE
         LUKE AFB IS LUKE AIR FORCE BASE
         DAVIS-MONTHAN IS DAVIS-MONTHAN AIR FORCE BASE
NAS    - NAVAL AIR STATION
         EL CENTRO NAS IS EL CENTRO NAVAL AIR STATION
N/A    - NOT AVAILABLE




USA.gov is the U.S. government's official web portal to all federal, state and local government web resources and services.